Weather History for KFHU - November, 2012

Change the Weather History Date:

Saturday, November 10, 2012

  Actual Average Record
Temperature  
Mean Temperature 48 °F -  
Max Temperature 55 °F 66 °F 80 °F (1991)
Min Temperature 39 °F 45 °F 32 °F (1998)
Degree Days  
Heating Degree Days 17    
Moisture  
Dew Point 31 °F    
Average Humidity 51    
Maximum Humidity 76    
Minimum Humidity 30    
Precipitation  
Precipitation 0.00 in - - ()
Sea Level Pressure  
Sea Level Pressure 29.87 in    
Wind  
Wind Speed 23 mph (WSW)    
Max Wind Speed 32 mph    
Max Gust Speed 50 mph    
Visibility 10 miles    
Events Rain    
Averages and records for this station are not official NWS values.
T = Trace of Precipitation, MM = Missing Value Source: NWS Daily Summary

Daily Weather History Graph

Daily Weather History Graph

Search for Another Location

Airport or City:

Trip Planner

Search our weather history database for the weather conditions in past years. The results will help you decide how hot, cold, wet, or windy it might be!

Date:

Astronomy

Nov. 10, 2012 Rise Set
Actual Time 6:45 AM MST 5:24 PM MST
Civil Twilight 6:19 AM MST 5:50 PM MST
Nautical Twilight 5:50 AM MST 6:19 PM MST
Astronomical Twilight 5:21 AM MST 6:48 PM MST
Moon 3:06 AM MST (11/10) 3:03 PM MST (11/10)
Length of Visible Light 11h 30m
Length of Day
10h 39m
Waning Crescent, 14% of the Moon is Illuminated
Nov 10
Waning Crescent
Nov 13
New
Nov 20
First Quarter
Nov 28
Full
Dec 6
Last Quarter

Hourly Weather History & Observations

Time (MST) Temp. Windchill Dew Point Humidity Pressure Visibility Wind Dir Wind Speed Gust Speed Precip Events Conditions
12:56 AM 55.9 °F - 42.1 °F 60% 29.75 in 10.0 mi SW 32.2 mph 49.5 mph N/A   Clear
1:56 AM 55.9 °F - 41.0 °F 57% 29.74 in 10.0 mi SSW 27.6 mph 44.9 mph N/A   Partly Cloudy
2:56 AM 55.0 °F - 39.9 °F 57% 29.71 in 10.0 mi SSW 32.2 mph 46.0 mph N/A   Clear
3:56 AM 54.0 °F - 39.9 °F 59% 29.73 in 10.0 mi SW 28.8 mph 39.1 mph N/A   Partly Cloudy
4:56 AM 53.1 °F - 39.0 °F 59% 29.76 in 10.0 mi SSW 20.7 mph 28.8 mph N/A   Partly Cloudy
5:56 AM 53.1 °F - 37.9 °F 57% 29.79 in 10.0 mi SW 17.3 mph 32.2 mph N/A   Mostly Cloudy
6:56 AM 50.0 °F - 42.1 °F 74% 29.82 in 10.0 mi West 17.3 mph 25.3 mph 0.00 in   Overcast
7:04 AM 50.0 °F - 42.8 °F 76% 29.92 in 10.0 mi West 13.8 mph - N/A   Overcast
7:56 AM 48.9 °F - 39.9 °F 71% 29.87 in 10.0 mi West 20.7 mph 31.1 mph 0.00 in Rain Light Rain
8:56 AM 50.0 °F - 36.0 °F 59% 29.89 in 10.0 mi SW 23.0 mph 28.8 mph 0.00 in Rain Light Rain
9:56 AM 48.0 °F - 37.9 °F 68% 29.91 in 10.0 mi West 17.3 mph - 0.00 in Rain Light Rain
10:56 AM 48.9 °F - 36.0 °F 61% 29.92 in 10.0 mi West 23.0 mph 27.6 mph 0.00 in   Overcast
11:56 AM 54.0 °F - 30.9 °F 41% 29.89 in 10.0 mi West 24.2 mph 29.9 mph N/A   Partly Cloudy
12:56 PM 55.0 °F - 28.9 °F 37% 29.86 in 10.0 mi WSW 23.0 mph 32.2 mph N/A   Clear
1:56 PM 55.4 °F - 26.6 °F 33% 29.93 in 10.0 mi West 25.3 mph 33.4 mph N/A   Clear
2:56 PM 54.0 °F - 24.1 °F 31% 29.85 in 10.0 mi WSW 28.8 mph 35.7 mph N/A   Clear
3:56 PM 53.1 °F - 23.0 °F 31% 29.86 in 10.0 mi WSW 25.3 mph 31.1 mph N/A   Clear
4:56 PM 51.1 °F - 21.0 °F 31% 29.86 in 10.0 mi WSW 19.6 mph 27.6 mph N/A   Clear
5:56 PM 46.9 °F - 17.1 °F 30% 29.89 in 10.0 mi West 11.5 mph - N/A   Clear
6:56 PM 45.0 °F 41.2 °F 19.9 °F 37% 29.93 in 10.0 mi West 6.9 mph - N/A   Clear
7:56 PM 45.0 °F 38.9 °F 21.0 °F 39% 29.94 in 10.0 mi West 12.7 mph - N/A   Clear
8:56 PM 41.0 °F 38.0 °F 21.0 °F 45% 29.98 in 10.0 mi WSW 4.6 mph - N/A   Clear
9:56 PM 43.0 °F 36.0 °F 24.1 °F 47% 29.99 in 10.0 mi West 13.8 mph - N/A   Mostly Cloudy
10:56 PM 42.1 °F 36.6 °F 25.0 °F 51% 30.02 in 10.0 mi West 9.2 mph - N/A   Partly Cloudy
11:56 PM 39.9 °F 35.1 °F 24.1 °F 53% 30.03 in 10.0 mi West 6.9 mph - N/A   Mostly Cloudy